Wind_Speed
15 16 16 16 16 15 17 13 13 11 11 10 11 11 11 10 11 9 7 6 5 4 5 3 3 1 3 0 2 4 5 6 7 7 6 7 8 8 8 7 6 6 5 6 6 8 9 10 10
20 22 22 20 20 19 22 18 18 16 16 15 14 14 15 15 14 13 11 10 9 8 7 7 6 7 7 5 5 4 3 4 6 8 9 9 9 9 9 10 11 11 11 13 12 12 12 11 11
20 20 21 21 19 19 23 22 22 21 20 19 19 19 19 18 18 16 16 13 12 11 10 10 10 10 10 10 9 8 8 6 6 8 8 9 9 10 10 12 12 13 14 14 14 16 16 16 15
15 15 15 16 18 20 19 21 20 22 21 22 22 22 22 20 20 20 18 17 15 14 13 13 14 14 11 10 11 12 11 10 10 11 11 12 13 14 15 16 16 16 16 17 17 17 18 19 19
12 14 14 13 15 16 16 20 20 22 23 23 24 23 22 20 19 19 18 18 19 18 16 16 16 17 16 13 14 14 14 14 15 14 13 14 16 16 17 17 19 20 20 20 19 20 21 21 22
11 12 12 13 15 13 15 17 18 19 19 20 20 19 19 18 17 17 17 18 19 20 20 19 19 19 19 19 17 16 15 16 17 18 18 18 18 17 17 17 16 15 16 18 20 20 22 23 24
13 12 11 12 12 15 16 17 18 18 18 19 18 17 16 15 15 15 16 17 18 20 22 21 21 21 22 22 22 22 21 21 20 20 21 23 23 22 21 19 17 18 18 19 20 21 22 22 22
13 13 12 11 11 11 12 13 16 18 18 17 19 17 16 18 16 15 15 16 17 19 20 22 22 23 24 24 24 25 26 26 25 25 25 26 27 28 28 26 25 25 26 27 26 26 26 25 25
15 13 13 14 13 12 13 14 15 16 17 17 18 19 18 18 17 16 16 16 16 18 19 20 21 22 23 24 25 26 27 27 28 28 28 29 29 31 32 33 35 35 34 34 34 32 31 28 27
18 18 16 16 16 16 16 17 16 19 18 17 17 16 17 18 18 18 18 18 19 19 20 22 22 22 23 26 28 28 29 31 30 31 32 31 32 32 35 35 36 36 37 38 36 35 36 34 32
21 22 20 21 22 21 21 20 19 20 23 18 20 16 19 18 18 18 18 18 18 19 21 22 24 25 25 27 28 29 30 31 32 33 34 35 36 38 37 38 39 39 38 38 37 38 38 37 37
27 28 28 26 27 27 25 25 21 22 26 20 21 22 19 21 20 21 21 23 22 22 21 22 23 25 27 30 31 31 32 33 34 35 36 38 38 39 40 40 39 40 40 40 41 42 41 39 37
33 33 32 33 31 32 31 30 27 26 26 29 24 26 23 24 25 25 24 25 25 26 25 26 25 27 28 28 30 31 33 35 36 38 39 39 40 40 41 41 41 41 41 42 42 45 45 43 43
39 39 38 37 37 38 36 34 32 30 31 30 30 29 29 27 28 29 29 28 29 28 27 30 30 29 30 30 32 33 34 36 37 39 40 41 42 42 43 43 44 43 43 43 43 44 46 46 46
43 42 42 39 42 42 41 38 37 33 35 35 32 32 31 33 31 32 34 33 32 31 29 34 31 32 33 34 34 33 35 36 38 40 42 43 43 44 45 45 45 45 45 46 47 46 46 46 46
43 44 42 40 46 44 43 38 38 41 36 35 36 35 35 34 36 36 38 35 37 34 33 34 36 38 38 36 36 36 36 37 38 40 41 43 44 46 46 46 46 47 47 47 46 47 48 48 49
41 45 45 45 45 49 47 41 34 43 43 38 37 36 38 37 36 38 41 40 38 37 37 38 40 42 41 40 39 39 40 39 39 41 41 44 45 46 45 46 47 48 48 48 48 48 50 51 52
43 48 45 44 44 52 50 44 34 40 46 42 38 39 39 40 41 40 41 41 39 38 41 42 45 45 43 43 44 44 45 46 46 45 44 44 45 46 47 50 50 49 50 50 50 52 53 53 53
47 46 48 41 37 56 54 53 43 37 45 44 41 39 41 43 44 44 40 42 41 42 45 47 47 46 45 46 45 47 49 50 50 50 50 51 51 50 48 49 50 50 51 50 51 53 53 54 53
51 51 49 48 42 51 56 54 47 44 40 42 40 37 39 41 42 44 42 42 44 46 48 48 48 45 45 46 47 48 51 51 51 52 55 54 50 49 49 49 49 49 51 52 51 53 53 55 56
52 55 53 56 48 57 55 60 49 44 44 40 35 36 37 38 41 43 42 45 48 45 44 46 47 47 47 46 48 49 51 53 54 54 52 52 52 54 53 50 50 52 52 51 51 52 53 54 57
57 53 57 57 54 59 58 69 56 46 45 40 36 31 35 38 39 41 47 44 41 41 43 44 45 48 48 48 49 51 52 54 53 52 53 52 53 55 55 55 55 55 53 52 53 55 55 55 56
56 54 53 57 59 63 65 68 65 55 52 46 42 37 39 40 42 38 32 33 37 43 48 49 51 52 51 52 50 49 50 51 52 54 55 57 57 58 56 56 56 56 54 54 56 57 57 58 56
53 56 56 59 63 73 67 64 66 62 58 51 50 46 44 47 43 33 33 36 38 42 46 49 50 49 48 45 43 43 42 46 51 55 58 60 61 59 57 56 57 56 56 58 60 59 60 62 61
55 59 60 63 67 71 67 71 70 67 63 62 57 51 52 34 34 37 31 29 30 35 40 44 47 47 46 42 42 41 39 41 50 55 58 59 58 57 58 58 58 59 60 62 61 60 61 62 64
59 60 63 64 68 72 70 73 69 67 65 64 63 55 40 30 31 35 27 30 35 39 41 45 47 45 44 44 43 44 48 47 48 53 57 57 55 58 60 60 61 63 65 64 62 61 62 63 64
60 65 61 63 68 72 69 69 67 65 67 66 61 51 23 38 24 27 36 40 38 42 44 47 47 46 48 47 49 54 51 50 52 54 55 55 58 60 60 61 63 65 67 66 63 63 64 63 65
68 64 64 67 68 71 70 70 65 64 68 53 29 24 43 33 33 34 38 42 43 45 49 51 51 51 52 53 55 58 48 54 57 58 57 58 60 59 60 61 63 66 67 65 63 63 65 64 67
67 69 69 68 70 74 72 63 62 67 62 61 61 51 49 45 38 42 44 46 54 56 54 54 55 57 57 57 56 53 51 55 58 59 58 57 59 61 62 63 64 66 65 64 65 64 65 67 68
73 69 70 74 72 77 76 67 61 61 64 59 62 59 49 53 53 51 50 53 58 58 57 57 59 60 60 58 52 53 56 59 62 62 62 63 63 63 64 64 64 65 66 67 67 66 67 68 69
Wind_Direction
294 293 296 301 306 306 301 308 307 307 308 312 317 316 314 311 309 308 313 312 296 265 273 285 293 255 242 246 5 326 326 327 324 322 320 312 314 316 313 309 295 282 268 263 265 258 255 252 258
288 286 284 289 296 296 293 306 297 300 296 299 302 306 305 305 299 292 292 296 298 291 282 289 292 283 277 264 246 273 298 321 333 335 320 312 307 304 298 295 296 297 295 297 296 291 290 286 274
293 291 288 284 282 285 287 296 295 293 294 294 296 300 301 299 295 288 283 280 285 290 293 277 277 281 282 285 291 289 291 300 316 311 305 299 294 290 282 278 278 279 279 280 281 282 286 286 282
306 303 299 292 282 280 290 293 300 292 295 296 296 298 299 297 291 288 283 281 277 278 281 281 273 267 272 282 282 283 282 279 272 273 279 284 285 283 280 277 274 271 271 273 275 275 273 272 275
318 314 311 303 293 297 293 295 298 298 301 304 303 304 301 298 293 288 285 280 279 277 275 278 280 276 274 272 269 268 270 266 265 270 272 272 275 275 277 279 279 280 279 277 274 271 272 271 272
338 331 322 313 308 313 306 303 306 307 309 308 308 310 306 305 298 292 289 285 280 280 282 278 277 278 274 268 266 264 266 269 269 271 272 275 272 274 278 276 276 276 278 280 283 285 283 282 282
334 340 340 331 323 318 312 310 310 311 314 312 313 315 315 308 298 294 290 288 287 285 286 282 279 278 275 270 266 265 264 265 270 272 273 275 276 272 267 267 261 264 270 280 278 275 276 278 273
330 329 330 332 324 323 314 316 317 316 316 316 312 314 308 305 298 297 294 291 288 286 284 283 282 280 277 272 272 271 270 270 271 274 275 274 270 270 270 264 262 264 269 275 277 276 277 276 277
318 322 321 317 319 320 316 314 312 311 313 315 315 325 315 306 308 304 296 291 288 288 289 287 285 283 279 274 276 280 276 274 273 272 277 276 274 273 271 268 268 271 269 270 275 276 278 275 275
305 309 312 314 317 318 317 315 316 314 310 314 309 321 324 319 314 306 301 299 297 292 286 283 281 278 276 275 278 279 279 279 276 276 281 280 278 277 277 275 271 272 272 272 268 272 277 274 273
302 303 306 309 311 312 312 312 316 313 310 317 313 313 308 311 312 311 307 305 304 300 293 286 281 277 275 274 275 275 275 277 280 282 283 282 280 277 276 275 271 272 272 271 268 273 277 273 278
298 303 305 306 308 309 308 309 313 311 312 318 313 309 312 312 306 304 303 301 303 305 304 296 292 286 279 276 274 273 273 275 276 277 280 281 280 276 276 274 272 271 270 271 269 272 275 274 275
291 293 295 296 300 300 301 302 304 302 307 307 312 310 315 313 308 305 302 301 303 298 304 302 293 291 289 285 281 277 275 275 274 274 275 276 275 271 272 274 274 273 272 273 273 273 275 276 277
289 287 289 290 292 290 293 293 297 297 302 300 305 306 309 308 306 306 305 307 299 299 297 302 294 294 293 290 287 285 283 279 276 274 274 275 274 271 271 272 271 272 271 272 273 271 272 272 273
284 285 286 291 287 286 287 287 293 289 291 295 297 300 302 302 301 302 301 304 300 306 299 297 291 289 290 290 288 287 284 280 278 276 276 275 272 271 270 271 271 272 274 272 271 271 271 273 274
284 286 288 283 282 283 281 284 285 285 284 286 291 293 296 296 297 296 296 300 298 301 298 296 291 290 288 288 288 287 285 284 283 280 278 276 274 274 273 273 273 273 272 272 273 274 273 274 275
288 287 283 285 288 286 281 279 278 281 283 282 283 286 290 291 291 293 293 296 294 297 295 295 292 290 289 287 289 288 288 289 291 287 284 282 281 280 279 278 276 276 277 277 277 276 274 273 276
282 283 287 290 295 287 283 280 270 277 279 279 282 284 285 289 290 287 290 292 293 293 295 294 291 290 288 288 288 289 291 292 289 286 287 288 288 284 281 280 280 280 278 277 277 276 276 277 278
282 284 285 291 288 282 285 283 282 273 275 281 282 285 289 289 286 287 286 290 290 292 293 291 290 287 286 286 287 290 292 292 289 287 289 291 290 286 284 281 281 280 280 279 278 278 278 279 280
283 285 284 283 284 278 282 283 281 278 278 277 284 284 284 285 286 286 288 287 289 291 290 287 285 284 284 284 287 290 292 292 291 291 291 293 291 289 287 285 284 282 280 279 279 277 278 282 284
281 281 286 285 285 281 283 282 281 282 281 282 282 283 283 281 281 285 286 288 288 285 282 282 282 282 281 283 287 290 292 292 292 292 293 291 289 289 286 287 284 281 279 277 276 276 279 280 282
275 277 278 281 279 282 280 285 284 286 284 282 281 279 285 283 284 284 286 285 280 277 279 279 278 279 284 286 288 291 293 294 296 295 292 292 289 290 290 286 284 282 278 276 277 278 279 279 283
276 275 275 276 277 279 276 283 292 291 289 290 289 290 293 287 289 285 279 282 278 275 276 276 277 282 286 289 293 293 295 295 296 297 295 294 290 290 288 285 282 279 276 276 278 281 280 283 284
271 273 273 274 275 274 278 282 286 288 290 291 295 294 296 303 300 284 278 274 267 268 270 272 278 283 288 298 302 303 299 297 297 296 296 295 294 292 288 283 282 278 277 279 280 282 283 284 283
272 271 272 271 270 275 282 282 286 289 295 296 296 304 303 308 296 292 279 275 272 266 271 277 280 285 292 297 299 298 299 297 295 295 294 292 293 290 287 285 284 281 281 282 282 283 286 285 288
267 267 266 270 274 277 276 276 285 289 288 292 294 300 302 289 290 283 269 283 283 280 279 279 282 288 293 296 296 299 300 301 295 292 292 293 294 292 290 287 284 283 284 285 284 285 286 288 289
265 264 269 268 270 273 276 279 281 285 289 290 295 303 265 304 280 269 279 288 282 276 277 279 283 288 293 294 298 299 302 303 300 296 293 292 292 293 292 289 285 285 286 285 284 286 287 289 291
270 270 270 270 270 272 272 277 284 287 288 294 303 287 295 293 289 282 284 282 283 282 281 283 287 291 290 294 299 299 297 302 300 297 294 293 291 291 290 289 288 286 285 285 286 288 289 290 294
269 269 270 269 268 269 274 275 278 281 285 295 297 295 294 296 282 282 282 280 281 283 284 285 285 286 288 292 294 294 296 300 296 295 294 293 292 291 290 290 287 285 285 286 286 290 291 294 296
268 270 266 266 272 272 271 266 268 280 285 285 282 288 291 286 284 276 281 283 282 285 282 281 283 284 286 290 290 288 291 294 292 293 292 292 291 290 289 288 286 285 286 285 286 289 292 293 296
Height
5875 5874 5874 5873 5875 5872 5869 5869 5868 5868 5868 5868 5867 5867 5866 5866 5865 5866 5864 5864 5864 5864 5863 5863 5863 5862 5862 5862 5862 5862 5862 5862 5863 5864 5864 5864 5864 5864 5864 5865 5865 5864 5864 5865 5865 5865 5865 5865 5866
5873 5872 5871 5871 5871 5869 5866 5867 5866 5867 5867 5866 5866 5866 5865 5865 5864 5863 5862 5862 5862 5862 5862 5861 5861 5862 5862 5861 5862 5862 5862 5863 5863 5863 5864 5864 5864 5865 5865 5865 5865 5865 5865 5864 5865 5866 5865 5865 5865
5870 5869 5869 5868 5868 5866 5863 5864 5864 5864 5864 5864 5864 5863 5863 5863 5862 5861 5861 5860 5860 5859 5859 5859 5859 5859 5859 5860 5860 5860 5861 5861 5862 5862 5862 5862 5862 5862 5863 5863 5863 5863 5863 5862 5862 5862 5862 5862 5862
5868 5867 5867 5865 5864 5864 5863 5861 5862 5861 5861 5861 5861 5861 5860 5859 5858 5857 5858 5858 5858 5858 5858 5857 5857 5857 5857 5857 5858 5858 5859 5859 5859 5859 5859 5859 5859 5860 5860 5860 5860 5860 5860 5860 5860 5860 5859 5860 5860
5866 5865 5864 5863 5862 5862 5862 5860 5859 5859 5858 5858 5857 5857 5856 5855 5854 5853 5853 5854 5854 5855 5855 5855 5855 5855 5854 5855 5855 5856 5856 5857 5856 5856 5856 5857 5857 5857 5857 5857 5857 5857 5857 5858 5857 5858 5857 5857 5857
5865 5864 5863 5861 5860 5859 5859 5858 5856 5856 5856 5855 5853 5853 5853 5851 5851 5850 5850 5850 5850 5850 5851 5852 5852 5852 5851 5852 5852 5852 5853 5853 5853 5853 5854 5854 5854 5854 5854 5854 5854 5854 5854 5854 5854 5854 5854 5854 5854
5865 5864 5862 5860 5859 5858 5857 5856 5855 5854 5853 5852 5851 5850 5850 5848 5847 5846 5846 5846 5846 5846 5846 5847 5848 5849 5849 5849 5849 5849 5850 5850 5850 5850 5850 5850 5851 5851 5851 5850 5850 5850 5851 5850 5850 5850 5850 5850 5850
5864 5863 5861 5860 5859 5858 5856 5855 5853 5852 5851 5850 5848 5848 5847 5845 5844 5843 5843 5843 5842 5843 5843 5843 5844 5844 5844 5845 5845 5845 5845 5845 5845 5845 5846 5846 5845 5845 5846 5846 5846 5846 5846 5846 5846 5845 5844 5845 5844
5862 5861 5859 5858 5857 5857 5855 5854 5852 5851 5849 5848 5847 5846 5844 5842 5842 5841 5840 5839 5839 5838 5838 5838 5838 5839 5840 5840 5841 5841 5841 5841 5840 5840 5840 5840 5840 5840 5840 5840 5840 5839 5839 5839 5838 5838 5838 5839 5838
5860 5860 5858 5856 5854 5854 5854 5852 5851 5849 5847 5846 5844 5844 5842 5841 5840 5839 5837 5836 5836 5835 5834 5834 5834 5834 5834 5834 5834 5834 5834 5834 5834 5834 5833 5834 5834 5834 5833 5832 5832 5832 5832 5832 5832 5832 5833 5832 5832
5858 5856 5856 5855 5853 5852 5851 5850 5848 5846 5844 5844 5841 5841 5838 5838 5837 5836 5835 5833 5832 5831 5830 5829 5829 5828 5827 5828 5827 5827 5827 5827 5827 5827 5827 5826 5826 5826 5826 5826 5825 5825 5825 5824 5824 5825 5825 5825 5825
5856 5854 5853 5852 5850 5849 5847 5846 5846 5842 5841 5840 5838 5837 5837 5834 5833 5832 5831 5830 5828 5827 5826 5825 5823 5822 5822 5821 5820 5820 5819 5819 5819 5819 5818 5818 5818 5818 5818 5818 5817 5816 5816 5816 5816 5816 5816 5815 5815
5850 5848 5848 5847 5846 5844 5843 5842 5841 5838 5838 5835 5835 5831 5832 5830 5828 5827 5825 5824 5823 5822 5821 5819 5818 5817 5816 5815 5814 5813 5812 5812 5811 5810 5810 5810 5809 5809 5809 5808 5808 5807 5807 5807 5807 5806 5806 5806 5805
5843 5842 5842 5841 5840 5838 5836 5836 5836 5833 5832 5830 5829 5827 5825 5825 5822 5821 5819 5819 5816 5816 5815 5813 5811 5810 5808 5808 5806 5805 5804 5803 5802 5801 5801 5800 5800 5799 5798 5798 5798 5798 5798 5797 5796 5795 5794 5794 5793
5834 5833 5833 5835 5830 5828 5827 5830 5830 5828 5827 5825 5824 5822 5821 5817 5816 5814 5811 5811 5810 5809 5808 5806 5804 5803 5801 5800 5798 5797 5795 5793 5792 5791 5790 5790 5789 5789 5788 5788 5788 5787 5786 5785 5784 5784 5783 5782 5782
5826 5824 5824 5826 5820 5820 5818 5823 5822 5819 5819 5819 5816 5814 5813 5812 5809 5807 5804 5804 5801 5801 5799 5797 5795 5793 5792 5792 5790 5788 5786 5785 5783 5782 5781 5779 5778 5777 5777 5776 5777 5776 5774 5773 5772 5772 5771 5770 5770
5819 5813 5812 5813 5812 5806 5805 5811 5815 5808 5807 5810 5810 5808 5804 5804 5803 5799 5796 5794 5793 5791 5790 5789 5786 5784 5783 5782 5780 5779 5777 5775 5774 5772 5771 5770 5769 5767 5766 5765 5764 5762 5761 5760 5759 5758 5757 5756 5756
5807 5801 5803 5804 5803 5790 5792 5796 5805 5802 5796 5799 5801 5799 5797 5794 5792 5791 5789 5785 5784 5782 5780 5778 5776 5775 5773 5772 5770 5768 5766 5764 5763 5761 5760 5758 5757 5755 5754 5752 5750 5749 5748 5747 5745 5743 5742 5742 5742
5797 5796 5792 5797 5799 5778 5780 5779 5788 5795 5788 5788 5790 5790 5787 5784 5782 5779 5780 5776 5774 5772 5769 5767 5766 5764 5763 5761 5759 5758 5755 5753 5752 5750 5749 5747 5745 5743 5741 5739 5738 5736 5735 5733 5732 5731 5729 5726 5727
5786 5784 5784 5784 5787 5775 5768 5766 5773 5778 5781 5780 5780 5782 5779 5775 5771 5768 5769 5766 5764 5762 5759 5756 5754 5753 5752 5750 5749 5747 5744 5743 5741 5739 5737 5736 5733 5730 5728 5726 5725 5723 5721 5720 5719 5717 5716 5714 5712
5779 5773 5774 5770 5775 5761 5760 5748 5760 5766 5766 5770 5773 5772 5771 5767 5763 5760 5759 5756 5753 5750 5746 5745 5743 5741 5740 5740 5740 5738 5734 5731 5729 5727 5726 5723 5721 5718 5716 5714 5712 5709 5707 5705 5703 5702 5700 5699 5695
5765 5769 5763 5761 5759 5750 5749 5731 5745 5755 5755 5759 5762 5764 5762 5757 5755 5752 5747 5745 5742 5739 5736 5734 5732 5731 5731 5731 5729 5727 5724 5721 5718 5716 5714 5711 5708 5706 5703 5701 5699 5696 5694 5692 5690 5688 5685 5682 5678
5752 5752 5754 5750 5745 5738 5734 5728 5725 5740 5740 5746 5748 5751 5750 5747 5745 5739 5737 5735 5732 5729 5725 5723 5722 5720 5720 5719 5718 5717 5714 5710 5707 5704 5701 5698 5696 5693 5691 5688 5685 5682 5680 5678 5675 5672 5669 5667 5664
5742 5740 5739 5737 5732 5719 5725 5727 5718 5723 5726 5730 5732 5734 5735 5730 5723 5726 5725 5723 5720 5718 5715 5713 5712 5710 5709 5709 5707 5706 5704 5701 5696 5692 5688 5685 5682 5679 5676 5674 5671 5668 5666 5664 5661 5657 5653 5650 5647
5731 5727 5723 5719 5714 5710 5717 5710 5706 5709 5711 5712 5715 5719 5716 5718 5716 5710 5710 5709 5709 5707 5705 5704 5701 5700 5700 5699 5697 5694 5692 5690 5684 5679 5674 5671 5668 5665 5662 5660 5657 5654 5651 5648 5645 5641 5637 5634 5630
5715 5712 5708 5703 5704 5700 5703 5689 5696 5701 5702 5701 5700 5706 5707 5706 5703 5701 5698 5699 5698 5697 5696 5693 5691 5690 5690 5688 5685 5682 5679 5677 5672 5666 5660 5656 5653 5650 5648 5644 5640 5637 5634 5631 5629 5624 5620 5617 5611
5701 5695 5699 5690 5692 5687 5684 5682 5685 5687 5687 5688 5688 5693 5693 5694 5692 5691 5688 5687 5683 5683 5682 5679 5678 5676 5674 5671 5670 5667 5664 5661 5656 5650 5646 5642 5638 5635 5632 5628 5624 5621 5618 5614 5611 5607 5602 5599 5593
5681 5688 5683 5677 5674 5671 5670 5671 5672 5674 5677 5672 5676 5678 5682 5681 5680 5677 5676 5673 5669 5667 5665 5664 5664 5662 5659 5658 5655 5652 5649 5645 5641 5636 5631 5626 5622 5618 5614 5610 5607 5604 5600 5596 5593 5590 5585 5582 5575
5671 5668 5667 5664 5659 5654 5659 5664 5663 5658 5661 5664 5664 5663 5664 5667 5666 5664 5661 5659 5653 5650 5651 5650 5649 5646 5645 5643 5641 5636 5634 5630 5625 5619 5614 5609 5604 5600 5595 5591 5587 5584 5580 5577 5575 5571 5567 5563 5556
5650 5651 5647 5644 5649 5640 5643 5639 5657 5657 5654 5655 5653 5654 5654 5651 5650 5647 5645 5642 5636 5636 5636 5634 5631 5629 5627 5626 5625 5623 5620 5614 5608 5602 5598 5594 5589 5583 5578 5574 5570 5566 5562 5559 5556 5553 5548 5543 5537